Change the Weather History Date:

Monday, October 22, 2012

  Actual Average Record
Temperature  
Mean Temperature 54 °F -  
Max Temperature 68 °F 65 °F 82 °F (1979)
Min Temperature 39 °F 42 °F 26 °F (1974)
Degree Days  
Heating Degree Days 12    
Growing Degree Days 4 (Base 50)    
Moisture  
Dew Point 42 °F    
Average Humidity 71    
Maximum Humidity 96    
Minimum Humidity 36    
Precipitation  
Precipitation 0.00 in - - ()
Sea Level Pressure  
Sea Level Pressure 30.12 in    
Wind  
Wind Speed 7 mph (WNW)    
Max Wind Speed 16 mph    
Max Gust Speed 22 mph    
Visibility 10 miles    
Events      
Averages and records for this station are not official NWS values.
T = Trace of Precipitation, MM = Missing Value Source: NWS Daily Summary

Daily Weather History Graph

Daily Weather History Graph

Search for Another Location

Airport or City:

Trip Planner

Search our weather history database for the weather conditions in past years. The results will help you decide how hot, cold, wet, or windy it might be!

Date:

Astronomy

Oct. 22, 2012 Rise Set
Actual Time 7:17 AM EDT 6:10 PM EDT
Civil Twilight 6:50 AM EDT 6:38 PM EDT
Nautical Twilight 6:19 AM EDT 7:09 PM EDT
Astronomical Twilight 5:48 AM EDT 7:40 PM EDT
Moon 2:15 PM EDT (10/22) 12:04 AM EDT (10/22)
Length of Visible Light 11h 47m
Length of Day
10h 52m
First Quarter, 56% of the Moon is Illuminated
Oct 22
First Quarter
Oct 29
Full
Nov 6
Last Quarter
Nov 13
New
Nov 20
First Quarter

Hourly Weather History & Observations

Time (EDT) Temp. Windchill Dew Point Humidity Pressure Visibility Wind Dir Wind Speed Gust Speed Precip Events Conditions
12:54 AM 43.0 °F 39.5 °F 41.0 °F 93% 30.10 in 10.0 mi West 5.8 mph - N/A   Clear
1:54 AM 44.1 °F 40.1 °F 42.1 °F 93% 30.11 in 10.0 mi West 6.9 mph - N/A   Clear
2:54 AM 46.0 °F 43.1 °F 41.0 °F 83% 30.11 in 10.0 mi West 5.8 mph - N/A   Clear
3:54 AM 44.1 °F 40.1 °F 39.9 °F 85% 30.11 in 10.0 mi West 6.9 mph - N/A   Clear
4:54 AM 43.0 °F 38.8 °F 39.9 °F 89% 30.12 in 10.0 mi WNW 6.9 mph - N/A   Clear
5:54 AM 43.0 °F 38.8 °F 39.0 °F 86% 30.12 in 10.0 mi West 6.9 mph - N/A   Clear
6:54 AM 39.0 °F 34.8 °F 37.9 °F 96% 30.14 in 10.0 mi West 5.8 mph - N/A   Clear
7:54 AM 43.0 °F 40.3 °F 39.9 °F 89% 30.16 in 10.0 mi West 4.6 mph - N/A   Clear
8:54 AM 52.0 °F - 42.1 °F 69% 30.17 in 10.0 mi WNW 8.1 mph - N/A   Clear
9:54 AM 57.9 °F - 42.1 °F 56% 30.17 in 10.0 mi NW 9.2 mph - N/A   Clear
10:54 AM 62.1 °F - 42.1 °F 48% 30.16 in 10.0 mi NNW 11.5 mph - N/A   Clear
11:54 AM 63.0 °F - 41.0 °F 45% 30.14 in 10.0 mi WNW 11.5 mph 20.7 mph N/A   Clear
12:54 PM 64.9 °F - 41.0 °F 42% 30.13 in 10.0 mi West 8.1 mph 16.1 mph N/A   Clear
1:54 PM 66.9 °F - 39.9 °F 37% 30.10 in 10.0 mi NW 11.5 mph - N/A   Clear
2:54 PM 68.0 °F - 39.9 °F 36% 30.09 in 10.0 mi West 16.1 mph 21.9 mph N/A   Clear
3:54 PM 66.9 °F - 39.9 °F 37% 30.09 in 10.0 mi NW 12.7 mph - N/A   Clear
4:54 PM 66.9 °F - 41.0 °F 39% 30.09 in 10.0 mi WNW 10.4 mph - N/A   Clear
5:54 PM 61.0 °F - 44.1 °F 54% 30.09 in 10.0 mi Calm Calm - N/A   Clear
6:54 PM 53.1 °F - 46.0 °F 77% 30.10 in 10.0 mi Calm Calm - N/A   Clear
7:54 PM 48.9 °F - 45.0 °F 86% 30.11 in 10.0 mi Calm Calm - N/A   Clear
8:54 PM 46.9 °F - 44.1 °F 90% 30.11 in 10.0 mi Calm Calm - N/A   Clear
9:54 PM 48.0 °F - 44.1 °F 86% 30.12 in 10.0 mi West 3.5 mph - N/A   Clear
10:54 PM 48.9 °F - 45.0 °F 86% 30.12 in 10.0 mi West 3.5 mph - N/A   Clear
11:54 PM 45.0 °F 43.5 °F 43.0 °F 93% 30.12 in 10.0 mi WSW 3.5 mph - N/A   Clear